Weather History for K08D - October, 2012

Change the Weather History Date:

Monday, October 1, 2012

  Actual Average (KMOT) Record (KMOT)
Temperature  
Mean Temperature 50 °F 51 °F  
Max Temperature 64 °F 63 °F 92 °F (1992)
Min Temperature 37 °F 40 °F 14 °F (1936)
Degree Days  
Heating Degree Days 14 14  
Month to date heating degree days 14  
Since 1 July heating degree days 334  
Cooling Degree Days 0 0  
Month to date cooling degree days 0  
Year to date cooling degree days 444  
Moisture  
Dew Point 37 °F    
Average Humidity 68    
Maximum Humidity 100    
Minimum Humidity 26    
Precipitation  
Precipitation 0.00 in 0.04 in 0.80 in (2009)
Month to date precipitation 0.04  
Year to date precipitation 14.94  
Sea Level Pressure  
Sea Level Pressure 30.12 in    
Wind  
Wind Speed 10 mph (West)    
Max Wind Speed 14 mph    
Max Gust Speed 18 mph    
Visibility 10 miles    
Events      
T = Trace of Precipitation, MM = Missing Value Source: NWS Daily Summary

Daily Weather History Graph

Daily Weather History Graph

Search for Another Location

Airport or City:

Trip Planner

Search our weather history database for the weather conditions in past years. The results will help you decide how hot, cold, wet, or windy it might be!

Date:

Astronomy

Oct. 01, 2012 Rise Set
Actual Time 7:49 AM CDT 7:27 PM CDT
Civil Twilight 7:18 AM CDT 7:58 PM CDT
Nautical Twilight 6:42 AM CDT 8:34 PM CDT
Astronomical Twilight 6:05 AM CDT 9:11 PM CDT
Moon 7:52 PM CDT (10/1) 9:32 AM CDT (10/1)
Length of Visible Light 12h 40m
Length of Day
11h 37m
Full, 98% of the Moon is Illuminated
Oct 1
Full
Oct 8
Last Quarter
Oct 15
New
Oct 21
First Quarter
Oct 29
Full

Hourly Weather History & Observations

Time (CDT) Temp. Windchill Dew Point Humidity Pressure Visibility Wind Dir Wind Speed Gust Speed Precip Events Conditions
12:15 AM 44.6 °F 39.2 °F 44.6 °F 100% 30.19 in 10.0 mi NW 10.4 mph - N/A   Clear
12:35 AM 44.6 °F 39.2 °F 44.6 °F 100% 30.19 in 10.0 mi WNW 10.4 mph - N/A   Clear
1:15 AM 42.8 °F 38.6 °F 42.8 °F 100% 30.20 in 10.0 mi WNW 6.9 mph - N/A   Clear
1:35 AM 41.0 °F 35.8 °F 41.0 °F 100% 30.20 in 10.0 mi WNW 8.1 mph - N/A   Clear
1:55 AM 44.6 °F 38.8 °F 44.6 °F 100% 30.20 in 10.0 mi WNW 11.5 mph - N/A   Clear
2:35 AM 44.6 °F 39.2 °F 44.6 °F 100% 30.20 in 10.0 mi NW 10.4 mph - N/A   Clear
2:55 AM 44.6 °F 39.2 °F 44.6 °F 100% 30.20 in 10.0 mi NW 10.4 mph - N/A   Clear
3:15 AM 44.6 °F 39.2 °F 42.8 °F 93% 30.21 in 10.0 mi NW 10.4 mph 17.3 mph N/A   Clear
3:35 AM 44.6 °F 39.7 °F 42.8 °F 93% 30.20 in 10.0 mi NW 9.2 mph - N/A   Clear
3:55 AM 42.8 °F 37.5 °F 41.0 °F 93% 30.20 in 10.0 mi WNW 9.2 mph - N/A   Clear
4:15 AM 41.0 °F 35.2 °F 41.0 °F 100% 30.21 in 10.0 mi NW 9.2 mph - N/A   Clear
4:35 AM 41.0 °F 35.2 °F 39.2 °F 93% 30.21 in 10.0 mi WNW 9.2 mph - N/A   Clear
4:55 AM 39.2 °F 34.2 °F 39.2 °F 100% 30.21 in 10.0 mi WNW 6.9 mph - N/A   Clear
5:15 AM 39.2 °F 33.0 °F 39.2 °F 100% 30.22 in 10.0 mi WNW 9.2 mph - N/A   Clear
5:35 AM 39.2 °F 33.0 °F 39.2 °F 100% 30.22 in 10.0 mi WNW 9.2 mph - N/A   Clear
6:15 AM 37.4 °F 30.3 °F 37.4 °F 100% 30.23 in 10.0 mi WNW 10.4 mph - N/A   Clear
6:35 AM 37.4 °F 30.8 °F 37.4 °F 100% 30.23 in 10.0 mi WNW 9.2 mph - N/A   Clear
6:55 AM 37.4 °F 30.3 °F 37.4 °F 100% 30.23 in 10.0 mi WNW 10.4 mph - N/A   Clear
7:15 AM 37.4 °F 30.3 °F 37.4 °F 100% 30.23 in 10.0 mi WNW 10.4 mph - N/A   Clear
7:35 AM 37.4 °F 30.8 °F 37.4 °F 100% 30.23 in 10.0 mi WNW 9.2 mph - N/A   Clear
7:55 AM 37.4 °F 30.8 °F 37.4 °F 100% 30.23 in 10.0 mi WNW 9.2 mph - N/A   Clear
8:15 AM 37.4 °F 30.3 °F 37.4 °F 100% 30.24 in 10.0 mi WNW 10.4 mph - N/A   Clear
8:35 AM 37.4 °F 30.8 °F 37.4 °F 100% 30.24 in 10.0 mi WNW 9.2 mph - N/A   Clear
8:55 AM 39.2 °F 31.6 °F 39.2 °F 100% 30.24 in 10.0 mi WNW 12.7 mph - N/A   Clear
9:35 AM 42.8 °F 37.5 °F 41.0 °F 93% 30.24 in 10.0 mi WNW 9.2 mph - N/A   Clear
9:55 AM 44.6 °F 39.2 °F 41.0 °F 87% 30.24 in 10.0 mi WNW 10.4 mph - N/A   Clear
10:15 AM 46.4 °F 41.9 °F 42.8 °F 87% 30.24 in 10.0 mi WNW 9.2 mph - N/A   Clear
10:35 AM 48.2 °F - 42.8 °F 82% 30.24 in 10.0 mi West 10.4 mph - N/A   Clear
10:55 AM 50.0 °F - 42.8 °F 76% 30.24 in 10.0 mi West 10.4 mph - N/A   Clear
11:15 AM 53.6 °F - 42.8 °F 67% 30.23 in 10.0 mi West 10.4 mph - N/A   Clear
11:35 AM 55.4 °F - 41.0 °F 58% 30.22 in 10.0 mi West 11.5 mph - N/A   Clear
12:15 PM 57.2 °F - 41.0 °F 55% 30.21 in 10.0 mi West 13.8 mph - N/A   Clear
12:35 PM 59.0 °F - 41.0 °F 51% 30.20 in 10.0 mi West 11.5 mph - N/A   Clear
12:55 PM 59.0 °F - 39.2 °F 48% 30.20 in 10.0 mi West 12.7 mph 16.1 mph N/A   Clear
1:15 PM 60.8 °F - 39.2 °F 45% 30.19 in 10.0 mi West 11.5 mph 17.3 mph N/A   Clear
1:35 PM 60.8 °F - 37.4 °F 42% 30.18 in 10.0 mi WNW 8.1 mph 17.3 mph N/A   Clear
1:55 PM 62.6 °F - 35.6 °F 37% 30.17 in 10.0 mi WNW 9.2 mph 17.3 mph N/A   Clear
2:15 PM 62.6 °F - 35.6 °F 37% 30.16 in 10.0 mi West 9.2 mph 16.1 mph N/A   Clear
2:35 PM 62.6 °F - 35.6 °F 37% 30.15 in 10.0 mi West 8.1 mph 17.3 mph N/A   Clear
2:55 PM 62.6 °F - 33.8 °F 34% 30.14 in 10.0 mi WSW 12.7 mph 18.4 mph N/A   Clear
3:15 PM 62.6 °F - 32.0 °F 32% 30.13 in 10.0 mi WSW 12.7 mph - N/A   Clear
3:35 PM 62.6 °F - 30.2 °F 30% 30.12 in 10.0 mi SW 6.9 mph - N/A   Clear
4:15 PM 64.4 °F - 28.4 °F 26% 30.10 in 10.0 mi WSW 10.4 mph 17.3 mph N/A   Clear
4:35 PM 62.6 °F - 32.0 °F 32% 30.08 in 10.0 mi WSW 9.2 mph 18.4 mph N/A   Clear
5:15 PM 62.6 °F - 32.0 °F 32% 30.06 in 10.0 mi SSW 11.5 mph 16.1 mph N/A   Clear
5:35 PM 62.6 °F - 32.0 °F 32% 30.04 in 10.0 mi SSW 12.7 mph 18.4 mph N/A   Clear
5:55 PM 62.6 °F - 32.0 °F 32% 30.03 in 10.0 mi SW 11.5 mph - N/A   Clear
6:15 PM 62.6 °F - 32.0 °F 32% 30.01 in 10.0 mi SSW 13.8 mph - N/A   Clear
6:35 PM 62.6 °F - 32.0 °F 32% 30.00 in 10.0 mi SSW 10.4 mph - N/A   Clear
6:55 PM 59.0 °F - 32.0 °F 36% 29.99 in 10.0 mi SSW 10.4 mph - N/A   Clear
7:15 PM 55.4 °F - 32.0 °F 41% 29.99 in 10.0 mi South 8.1 mph - N/A   Clear
7:35 PM 53.6 °F - 32.0 °F 44% 29.98 in 10.0 mi South 9.2 mph - N/A   Clear
7:55 PM 48.2 °F - 32.0 °F 54% 29.97 in 10.0 mi SW 3.5 mph - N/A   Clear
8:15 PM 50.0 °F - 32.0 °F 50% 29.96 in 10.0 mi SSW 5.8 mph - N/A   Clear
8:35 PM 50.0 °F - 32.0 °F 50% 29.95 in 10.0 mi South 8.1 mph - N/A   Clear
8:55 PM 50.0 °F - 32.0 °F 50% 29.94 in 10.0 mi South 6.9 mph - N/A   Clear
9:15 PM 50.0 °F - 32.0 °F 50% 29.94 in 10.0 mi South 5.8 mph - N/A   Clear
9:35 PM 50.0 °F - 32.0 °F 50% 29.93 in 10.0 mi SSE 3.5 mph - N/A   Clear
9:55 PM 48.2 °F - 33.8 °F 58% 29.92 in 10.0 mi SSE 3.5 mph - N/A   Clear
10:15 PM 48.2 °F - 33.8 °F 58% 29.91 in 10.0 mi Calm Calm - N/A   Clear
10:35 PM 48.2 °F - 35.6 °F 62% 29.88 in 10.0 mi SSW 6.9 mph - N/A   Clear
10:55 PM 51.8 °F - 35.6 °F 54% 29.87 in 10.0 mi South 13.8 mph - N/A   Clear
11:15 PM 50.0 °F - 35.6 °F 58% 29.85 in 10.0 mi South 12.7 mph - N/A   Clear
11:35 PM 50.0 °F - 33.8 °F 54% 29.83 in 10.0 mi South 12.7 mph - N/A   Clear
11:55 PM 50.0 °F - 32.0 °F 50% 29.83 in 10.0 mi South 12.7 mph 17.3 mph N/A   Clear